G4MDP-13 Weather Reports


time (UTC)temp
F
wind
direction
speed
knots
gust
knots
rain 1hr
in
rain 24hr
in
rain mn
in
humidity
%
barometer
mb
20260510112613 52 91 3.5 14.8 0.00 0.02 0.02 77 1009.1
20260510112610 52 91 3.5 14.8 0.00 0.02 0.02 77 1009.1
20260510111209 53 114 3.5 7.0 0.00 0.02 0.02 74 1009.5
20260510111110 53 120 3.5 6.1 0.00 0.02 0.02 74 1009.2
20260510105612 53 126 3.5 7.0 0.00 0.02 0.02 73 1009.5
20260510105610 53 126 3.5 7.0 0.00 0.02 0.02 73 1009.5
20260510104209 53 147 4.3 8.7 0.00 0.02 0.02 76 1009.8
20260510104110 53 147 4.3 8.7 0.00 0.02 0.02 76 1009.8
20260510102613 53 143 3.5 9.6 0.00 0.02 0.02 75 1009.4
20260510102610 53 143 3.5 9.6 0.00 0.02 0.02 75 1009.4
20260510101209 52 144 3.5 5.2 0.00 0.02 0.02 76 1009.7
20260510101110 52 143 3.5 5.2 0.00 0.02 0.02 76 1009.8
20260510095614 52 137 3.5 7.0 0.00 0.01 0.01 78 1009.9
20260510095610 52 137 3.5 7.0 0.00 0.01 0.01 78 1009.9
20260510094209 52 142 3.5 5.2 0.01 0.01 0.01 80 1010.0
20260510094110 52 142 3.5 5.2 0.01 0.01 0.01 80 1010.1
20260510092612 51 132 3.5 6.1 0.01 0.01 0.01 83 1009.9
20260510092610 51 132 3.5 6.1 0.01 0.01 0.01 83 1009.9
20260510091209 51 124 3.5 6.1 0.01 0.01 0.01 83 1010.0
20260510091110 51 115 3.5 6.1 0.01 0.01 0.01 83 1009.7
20260510085610 51 111 3.5 8.7 0.01 0.01 0.01 83 1009.7
20260510084209 51 114 3.5 10.4 0.00 0.00 0.00 83 1009.5
20260510084110 51 113 3.5 10.4 0.00 0.00 0.00 83 1009.4
20260510082613 51 109 3.5 7.8 0.00 0.00 0.00 81 1009.7
20260510082610 51 109 3.5 7.8 0.00 0.00 0.00 81 1009.7
20260510081209 51 133 3.5 6.1 0.00 0.00 0.00 80 1010.0
20260510081110 51 141 3.5 6.1 0.00 0.00 0.00 79 1010.0
20260510075612 52 125 2.6 6.1 0.00 0.00 0.00 77 1009.8
20260510075610 52 125 2.6 6.1 0.00 0.00 0.00 77 1009.8
20260510074209 52 125 2.6 5.2 0.00 0.00 0.00 75 1009.7
20260510074110 52 127 2.6 6.1 0.00 0.00 0.00 75 1009.7
20260510072612 51 123 3.5 6.1 0.00 0.00 0.00 74 1009.8
20260510072610 51 123 3.5 6.1 0.00 0.00 0.00 74 1009.8
20260510071810 51 139 3.5 6.1 0.00 0.00 0.00 74 1009.5
20260510071412 51 136 3.5 6.1 0.00 0.00 0.00 75 1009.7
20260510071410 51 136 3.5 6.1 0.00 0.00 0.00 75 1009.7
20260510071210 51 131 3.5 7.0 0.00 0.00 0.00 75 1009.5
20260510071145 51 132 3.5 7.0 0.00 0.00 0.00 75 1009.7
20260510071143 51 132 3.5 7.0 0.00 0.00 0.00 75 1009.7
20260510071133 51 132 3.5 7.0 0.00 0.00 0.00 75 1009.7
20260510070259 51 122 3.5 7.0 0.00 0.00 0.00 75 1009.6
20260510070200 51 116 3.5 7.0 0.00 0.00 0.00 75 1009.9
20260510070159 51 116 3.5 7.0 0.00 0.00 0.00 75 1009.9
20260510064700 51 133 3.5 6.1 0.00 0.00 0.00 75 1009.9
20260510064659 51 133 3.5 6.1 0.00 0.00 0.00 75 1009.9
20260510063259 51 133 2.6 7.0 0.00 0.00 0.00 76 1010.1
20260510063200 51 134 2.6 7.0 0.00 0.00 0.00 76 1010.1
20260510063159 51 134 2.6 7.0 0.00 0.00 0.00 76 1010.1
20260510061700 51 115 3.5 6.1 0.00 0.00 0.00 77 1009.8
20260510061659 51 115 3.5 6.1 0.00 0.00 0.00 77 1009.8
20260510060259 50 127 3.5 7.0 0.00 0.00 0.00 77 1010.0
20260510060200 51 130 3.5 7.0 0.00 0.00 0.00 77 1009.9
20260510060159 51 130 3.5 7.0 0.00 0.00 0.00 77 1009.9
20260510054700 50 141 2.6 5.2 0.00 0.00 0.00 77 1010.1
20260510054659 50 141 2.6 5.2 0.00 0.00 0.00 77 1010.1
20260510053259 50 135 2.6 5.2 0.00 0.00 0.00 77 1009.9
20260510053200 50 135 2.6 5.2 0.00 0.00 0.00 77 1009.9
20260510053159 50 135 2.6 5.2 0.00 0.00 0.00 77 1009.9
20260510051700 51 149 3.5 7.0 0.00 0.00 0.00 77 1009.8
20260510051659 51 149 3.5 7.0 0.00 0.00 0.00 77 1009.8
20260510050259 51 144 3.5 5.2 0.00 0.00 0.00 77 1009.8
20260510050200 51 145 3.5 5.2 0.00 0.00 0.00 77 1009.9
20260510050159 51 145 3.5 5.2 0.00 0.00 0.00 77 1009.9
20260510044700 51 137 3.5 8.7 0.00 0.00 0.00 77 1010.0
20260510044659 51 137 3.5 8.7 0.00 0.00 0.00 77 1010.0
20260510043259 51 131 2.6 5.2 0.00 0.00 0.00 77 1010.0
20260510043200 51 132 2.6 5.2 0.00 0.00 0.00 77 1009.9
20260510043159 51 132 2.6 5.2 0.00 0.00 0.00 77 1009.9
20260510041700 51 123 3.5 5.2 0.00 0.00 0.00 78 1010.0
20260510041659 51 123 3.5 5.2 0.00 0.00 0.00 78 1010.0
20260510040259 51 134 2.6 5.2 0.00 0.00 0.00 78 1009.9
20260510040200 51 138 2.6 5.2 0.00 0.00 0.00 78 1010.0
20260510040159 51 138 2.6 5.2 0.00 0.00 0.00 78 1010.0
20260510034700 52 130 2.6 5.2 0.00 0.00 0.00 78 1010.0
20260510034659 52 130 2.6 5.2 0.00 0.00 0.00 78 1010.0
20260510033259 52 146 2.6 6.1 0.00 0.00 0.00 78 1010.1
20260510033200 52 138 2.6 6.1 0.00 0.00 0.00 78 1010.3
20260510033159 52 138 2.6 6.1 0.00 0.00 0.00 78 1010.3
20260510031700 52 124 2.6 5.2 0.00 0.00 0.00 77 1010.2
20260510031659 52 124 2.6 5.2 0.00 0.00 0.00 77 1010.2
20260510030259 53 143 2.6 5.2 0.00 0.00 0.00 77 1010.3
20260510030200 53 142 3.5 5.2 0.00 0.00 0.00 77 1010.1
20260510030159 53 142 3.5 5.2 0.00 0.00 0.00 77 1010.1
20260510024700 53 134 3.5 5.2 0.00 0.00 0.00 76 1010.2
20260510024659 53 134 3.5 5.2 0.00 0.00 0.00 76 1010.2
20260510023259 53 132 2.6 5.2 0.00 0.00 0.00 75 1010.5
20260510023200 53 138 2.6 5.2 0.00 0.00 0.00 75 1010.4
20260510023159 53 138 2.6 5.2 0.00 0.00 0.00 75 1010.4
20260510021700 53 143 2.6 4.3 0.00 0.00 0.00 73 1010.2
20260510020259 54 142 3.5 5.2 0.00 0.00 0.00 71 1010.4
20260510020200 54 141 3.5 5.2 0.00 0.00 0.00 71 1010.3
20260510020159 54 141 3.5 5.2 0.00 0.00 0.00 71 1010.3
20260510014700 54 154 3.5 6.1 0.00 0.00 0.00 69 1010.6
20260510014659 54 154 3.5 6.1 0.00 0.00 0.00 69 1010.6
20260510013259 54 151 3.5 5.2 0.00 0.00 0.00 67 1010.4
20260510013200 54 154 3.5 5.2 0.00 0.00 0.00 67 1010.4
20260510013159 54 154 3.5 5.2 0.00 0.00 0.00 67 1010.4
20260510011700 54 154 3.5 4.3 0.00 0.00 0.00 64 1010.5
20260510011659 54 154 3.5 4.3 0.00 0.00 0.00 64 1010.5
20260510010259 54 155 3.5 5.2 0.00 0.00 0.00 62 1010.4
20260510010200 54 157 3.5 5.2 0.00 0.00 0.00 62 1010.4
20260510010159 54 157 3.5 5.2 0.00 0.00 0.00 62 1010.4
20260510004700 55 141 3.5 5.2 0.00 0.00 0.00 60 1010.1
20260510004659 55 141 3.5 5.2 0.00 0.00 0.00 60 1010.1
20260510003259 55 149 3.5 5.2 0.00 0.00 0.00 58 1010.1
20260510003200 55 150 3.5 5.2 0.00 0.00 0.00 57 1010.2
20260510003159 55 150 3.5 5.2 0.00 0.00 0.00 57 1010.2
20260510001700 55 155 3.5 6.1 0.00 0.00 0.00 55 1010.0
20260510001659 55 155 3.5 6.1 0.00 0.00 0.00 55 1010.0
20260510000259 56 154 3.5 6.1 0.00 0.00 0.00 54 1010.2
20260510000200 56 155 3.5 6.1 0.00 0.00 0.00 54 1010.0
20260510000159 56 155 3.5 6.1 0.00 0.00 0.00 54 1010.0
20260509234700 56 148 3.5 5.2 0.00 0.00 0.00 52 1010.1
20260509234659 56 148 3.5 5.2 0.00 0.00 0.00 52 1010.1
20260509233259 56 130 3.5 6.1 0.00 0.00 0.00 50 1010.1
20260509233200 56 133 3.5 6.1 0.00 0.00 0.00 50 1010.0
20260509233159 56 133 3.5 6.1 0.00 0.00 0.00 50 1010.0
20260509231700 56 154 2.6 6.1 0.00 0.00 0.00 49 1009.8
20260509231659 56 154 2.6 6.1 0.00 0.00 0.00 49 1009.8
20260509230259 56 150 3.5 6.1 0.00 0.00 0.00 48 1009.9
20260509230200 56 147 3.5 6.1 0.00 0.00 0.00 48 1010.1
20260509230159 56 147 3.5 6.1 0.00 0.00 0.00 48 1010.1
20260509224700 56 148 2.6 6.1 0.00 0.00 0.00 46 1010.1
20260509224659 56 148 2.6 6.1 0.00 0.00 0.00 46 1010.1
20260509223259 56 139 3.5 6.1 0.00 0.00 0.00 45 1009.9
20260509223200 56 141 3.5 6.1 0.00 0.00 0.00 45 1010.1
20260509223159 56 141 3.5 6.1 0.00 0.00 0.00 45 1010.1
20260509221700 57 144 2.6 7.0 0.00 0.00 0.00 44 1009.8
20260509221659 57 144 2.6 7.0 0.00 0.00 0.00 44 1009.8
20260509220259 57 143 3.5 6.1 0.00 0.00 0.00 44 1010.0
20260509220200 57 145 3.5 6.1 0.00 0.00 0.00 43 1010.0
20260509220159 57 145 3.5 6.1 0.00 0.00 0.00 43 1010.0
20260509214700 57 127 3.5 7.0 0.00 0.00 0.00 43 1010.1
20260509214659 57 127 3.5 7.0 0.00 0.00 0.00 43 1010.1
20260509213259 57 155 2.6 7.8 0.00 0.00 0.00 42 1010.0
20260509213200 57 155 2.6 7.8 0.00 0.00 0.00 42 1010.0
20260509213159 57 155 2.6 7.8 0.00 0.00 0.00 42 1010.0
20260509211700 57 159 3.5 5.2 0.00 0.00 0.00 44 1009.7
20260509211659 57 159 3.5 5.2 0.00 0.00 0.00 44 1009.7
20260509210259 57 141 3.5 6.1 0.00 0.00 0.00 45 1009.8
20260509210200 57 141 3.5 6.1 0.00 0.00 0.00 45 1009.8
20260509210159 57 141 3.5 6.1 0.00 0.00 0.00 45 1009.8
20260509204700 58 146 2.6 5.2 0.00 0.00 0.00 47 1009.6
20260509204659 58 146 2.6 5.2 0.00 0.00 0.00 47 1009.6
20260509203259 58 133 2.6 5.2 0.00 0.00 0.00 47 1009.6
20260509203200 58 128 2.6 5.2 0.00 0.00 0.00 47 1009.5
20260509203159 58 128 2.6 5.2 0.00 0.00 0.00 47 1009.5
20260509201700 59 133 2.6 7.8 0.00 0.00 0.00 46 1009.5
20260509201659 59 133 2.6 7.8 0.00 0.00 0.00 46 1009.5
20260509200259 59 146 2.6 6.1 0.00 0.00 0.00 46 1009.3
20260509200200 59 145 2.6 6.1 0.00 0.00 0.00 46 1009.0
20260509200159 59 145 2.6 6.1 0.00 0.00 0.00 46 1009.0
20260509194700 60 141 2.6 5.2 0.00 0.00 0.00 47 1009.0
20260509194659 60 141 2.6 5.2 0.00 0.00 0.00 47 1009.0
20260509193259 60 150 2.6 5.2 0.00 0.00 0.00 47 1009.1
20260509193200 61 149 2.6 5.2 0.00 0.00 0.00 47 1009.3
20260509193159 61 149 2.6 5.2 0.00 0.00 0.00 47 1009.3
20260509191700 62 147 3.5 6.1 0.00 0.00 0.00 45 1009.2
20260509191659 62 147 3.5 6.1 0.00 0.00 0.00 45 1009.2
20260509190259 62 152 2.6 7.0 0.00 0.00 0.00 45 1009.1
20260509190200 62 153 2.6 7.0 0.00 0.00 0.00 45 1009.2
20260509190159 62 153 2.6 7.0 0.00 0.00 0.00 45 1009.2
20260509184700 63 141 2.6 5.2 0.00 0.00 0.00 45 1009.1
20260509184659 63 141 2.6 5.2 0.00 0.00 0.00 45 1009.1
20260509183259 64 158 2.6 6.1 0.00 0.00 0.00 46 1009.1
20260509183200 64 161 2.6 6.1 0.00 0.00 0.00 46 1009.4
20260509183159 64 161 2.6 6.1 0.00 0.00 0.00 46 1009.4
20260509181700 65 152 2.6 5.2 0.00 0.00 0.00 44 1009.0
20260509181659 65 152 2.6 5.2 0.00 0.00 0.00 44 1009.0
20260509180259 66 160 2.6 7.0 0.00 0.00 0.00 44 1008.7
20260509180200 66 162 2.6 7.0 0.00 0.00 0.00 44 1008.7
20260509180159 66 162 2.6 7.0 0.00 0.00 0.00 44 1008.7
20260509174702 67 156 2.6 4.3 0.00 0.00 0.00 44 1008.9
20260509174700 67 156 2.6 4.3 0.00 0.00 0.00 44 1008.9
20260509173259 68 178 2.6 4.3 0.00 0.00 0.00 43 1008.7
20260509173200 68 177 2.6 4.3 0.00 0.00 0.00 42 1008.8
20260509173159 68 177 2.6 4.3 0.00 0.00 0.00 42 1008.8
20260509171702 70 179 2.6 4.3 0.00 0.00 0.00 40 1008.6
20260509171700 70 179 2.6 4.3 0.00 0.00 0.00 40 1008.6
20260509170259 71 176 2.6 5.2 0.00 0.00 0.00 38 1008.6
20260509170200 71 176 2.6 5.2 0.00 0.00 0.00 38 1008.6
20260509170159 71 176 2.6 5.2 0.00 0.00 0.00 38 1008.6
20260509164702 72 177 2.6 5.2 0.00 0.00 0.00 38 1008.6
20260509164700 72 177 2.6 5.2 0.00 0.00 0.00 38 1008.6
20260509163259 73 182 2.6 4.3 0.00 0.00 0.00 36 1008.6
20260509163200 73 182 2.6 4.3 0.00 0.00 0.00 36 1008.6
20260509163159 73 182 2.6 4.3 0.00 0.00 0.00 36 1008.6
20260509161702 72 180 2.6 4.3 0.00 0.00 0.00 37 1008.6
20260509161700 72 180 2.6 4.3 0.00 0.00 0.00 37 1008.6
20260509160259 71 174 2.6 4.3 0.00 0.00 0.00 38 1008.4
20260509160200 72 175 2.6 5.2 0.00 0.00 0.00 37 1008.4
20260509160159 72 175 2.6 5.2 0.00 0.00 0.00 37 1008.4
20260509154702 74 181 3.5 7.0 0.00 0.00 0.00 35 1008.5
20260509154700 74 181 3.5 7.0 0.00 0.00 0.00 35 1008.5
20260509153259 73 174 3.5 5.2 0.00 0.00 0.00 36 1008.7
20260509153203 73 173 2.6 5.2 0.00 0.00 0.00 36 1008.7
20260509153200 73 173 2.6 5.2 0.00 0.00 0.00 36 1008.7
20260509151700 72 159 3.5 5.2 0.00 0.00 0.00 37 1008.9
20260509150259 73 178 3.5 6.1 0.00 0.00 0.00 36 1009.0
20260509150200 74 176 3.5 6.1 0.00 0.00 0.00 36 1009.0
20260509150159 74 176 3.5 6.1 0.00 0.00 0.00 36 1009.0
20260509144704 72 168 4.3 7.8 0.00 0.00 0.00 37 1009.3
20260509144700 72 168 4.3 7.8 0.00 0.00 0.00 37 1009.3
20260509143259 72 173 4.3 7.0 0.00 0.00 0.00 38 1009.4
20260509143200 72 174 4.3 7.0 0.00 0.00 0.00 39 1009.3
20260509143159 72 174 4.3 7.0 0.00 0.00 0.00 39 1009.3
20260509141700 72 171 3.5 5.2 0.00 0.00 0.00 38 1009.4
20260509140259 71 168 3.5 6.1 0.00 0.00 0.00 41 1009.3
20260509140200 70 169 3.5 6.1 0.00 0.00 0.00 41 1009.3
20260509140159 70 169 3.5 6.1 0.00 0.00 0.00 41 1009.3
20260509134700 74 174 3.5 5.2 0.00 0.00 0.00 39 1008.9
20260509133259 76 183 2.6 6.1 0.00 0.00 0.00 36 1009.1
20260509133200 75 183 2.6 4.3 0.00 0.00 0.00 35 1009.0
20260509133159 75 183 2.6 4.3 0.00 0.00 0.00 35 1009.0
20260509131702 73 175 2.6 5.2 0.00 0.00 0.00 36 1009.1
20260509131700 73 175 2.6 5.2 0.00 0.00 0.00 36 1009.1
20260509130259 76 184 2.6 5.2 0.00 0.00 0.00 34 1009.5
20260509130200 76 183 2.6 5.2 0.00 0.00 0.00 34 1009.5
20260509130159 76 183 2.6 5.2 0.00 0.00 0.00 34 1009.5
20260509124700 74 175 2.6 5.2 0.00 0.00 0.00 33 1009.4
20260509123259 71 175 1.7 6.1 0.00 0.00 0.00 36 1009.5
20260509123200 71 174 2.6 6.1 0.00 0.00 0.00 37 1009.3
20260509123159 71 174 2.6 6.1 0.00 0.00 0.00 37 1009.3
20260509121702 73 184 2.6 4.3 0.00 0.00 0.00 36 1009.7
20260509121700 73 184 2.6 4.3 0.00 0.00 0.00 36 1009.7
20260509120259 73 174 2.6 6.1 0.00 0.00 0.00 36 1009.8
20260509120200 73 177 2.6 6.1 0.00 0.00 0.00 35 1009.7
20260509120159 73 177 2.6 6.1 0.00 0.00 0.00 35 1009.7
20260509114700 71 165 2.6 4.3 0.00 0.00 0.00 39 1010.1